Location: Quartzsite
(33.6639°N, 114.2299°W)
Time: 08:39:28
(UTC-07:00)

OTV 5 (USA 277) - Visible Passes

Search period start: 27 May 2018 00:00
Search period end: 06 June 2018 00:00
Orbit: 308 x 326 km, 54.5° (Epoch: 06 May)

Date Brightness Start Highest point End Pass type
(mag) Time Alt. Az. Time Alt. Az. Time Alt. Az.
27 May ? 04:28:25 17° SSW 04:30:14 44° SE 04:32:53 10° NE visible
28 May ? 04:42:31 14° WSW 04:44:37 43° NW 04:47:17 10° NNE visible
29 May ? 03:25:39 20° E 03:25:39 20° E 03:27:07 10° ENE visible
29 May ? 04:57:24 10° W 04:59:10 16° NW 05:00:57 10° N visible
30 May ? 03:39:35 60° NE 03:39:35 60° NE 03:41:55 10° NE visible
31 May ? 03:53:26 25° NW 03:53:37 25° NW 03:55:59 10° NNE visible
01 Jun ? 02:36:22 10° NE 02:36:22 10° NE 02:36:22 10° NE visible
01 Jun ? 04:07:44 10° NW 04:08:15 10° NW 04:08:46 10° NNW visible
02 Jun ? 02:50:06 15° NNE 02:50:06 15° NNE 02:50:46 10° NNE visible
03 Jun ? 03:03:47 13° N 03:03:47 13° N 03:04:28 10° N visible
